owner,sensor,date,latitude,longitude,vertical_datum,direction_of_sea_water_velocity,sea_water_speed,upward_sea_water_velocity,qcFlag 
TABS,ioos:station:wmo:42048:1,2002-12-01T00:00:00Z,27.9396,-96.8429,2.0,230.8978295,17.40920733,-99999.0,'11111222,11111222,99999999' 
TABS,ioos:station:wmo:42048:1,2002-12-01T00:30:00Z,27.9396,-96.8429,2.0,235.467278,22.26252456,-99999.0,'11111222,11111222,99999999' 
TABS,ioos:station:wmo:42048:1,2002-12-01T01:00:00Z,27.9396,-96.8429,2.0,230.0239986,17.68197104,-99999.0,'11111222,11111222,99999999' 
TABS,ioos:station:wmo:42048:1,2002-12-01T01:30:00Z,27.9396,-96.8429,2.0,238.3264542,13.71236303,-99999.0,'11111222,11111222,99999999' 
TABS,ioos:station:wmo:42048:1,2002-12-01T02:00:00Z,27.9396,-96.8429,2.0,246.7175989,19.83517078,-99999.0,'11111222,11111222,99999999' 
TABS,ioos:station:wmo:42048:1,2002-12-01T02:30:00Z,27.9396,-96.8429,2.0,238.2962965,14.88045698,-99999.0,'11111222,11111222,99999999' 
TABS,ioos:station:wmo:42048:1,2002-12-01T03:00:00Z,27.9396,-96.8429,2.0,238.1803267,12.40416059,-99999.0,'11111222,11111222,99999999' 
TABS,ioos:station:wmo:42048:1,2002-12-01T03:30:00Z,27.9396,-96.8429,2.0,244.8038569,11.41615084,-99999.0,'11111222,11111222,99999999' 
TABS,ioos:station:wmo:42048:1,2002-12-01T04:00:00Z,27.9396,-96.8429,2.0,234.6010909,16.27936731,-99999.0,'11111222,11111222,99999999' 
TABS,ioos:station:wmo:42048:1,2002-12-01T04:30:00Z,27.9396,-96.8429,2.0,245.5149997,15.15264003,-99999.0,'11111222,11111222,99999999' 
TABS,ioos:station:wmo:42048:1,2002-12-01T05:00:00Z,27.9396,-96.8429,2.0,226.3800352,11.74137982,-99999.0,'11111222,11111222,99999999' 
TABS,ioos:station:wmo:42048:1,2002-12-01T05:30:00Z,27.9396,-96.8429,2.0,235.0281778,15.9987812,-99999.0,'11111222,11111222,99999999' 
TABS,ioos:station:wmo:42048:1,2002-12-01T06:00:00Z,27.9396,-96.8429,2.0,223.0339079,15.25419942,-99999.0,'11111222,11111222,99999999' 
TABS,ioos:station:wmo:42048:1,2002-12-01T06:30:00Z,27.9396,-96.8429,2.0,235.4277508,16.75947792,-99999.0,'11111222,11111222,99999999' 
TABS,ioos:station:wmo:42048:1,2002-12-01T07:00:00Z,27.9396,-96.8429,2.0,222.1266627,15.23608874,-99999.0,'11111222,11111222,99999999' 
TABS,ioos:station:wmo:42048:1,2002-12-01T07:30:00Z,27.9396,-96.8429,2.0,218.0600068,16.26951136,-99999.0,'11111222,11111222,99999999' 
TABS,ioos:station:wmo:42048:1,2002-12-01T08:00:00Z,27.9396,-96.8429,2.0,224.3743815,20.73360557,-99999.0,'11111222,11111222,99999999' 
TABS,ioos:station:wmo:42048:1,2002-12-01T08:30:00Z,27.9396,-96.8429,2.0,223.9007712,19.54095443,-99999.0,'11111222,11111222,99999999' 
TABS,ioos:station:wmo:42048:1,2002-12-01T09:00:00Z,27.9396,-96.8429,2.0,215.5021333,20.78391926,-99999.0,'11111222,11111222,99999999' 
TABS,ioos:station:wmo:42048:1,2002-12-01T09:30:00Z,27.9396,-96.8429,2.0,219.3798036,20.00119246,-99999.0,'11111222,11111222,99999999' 
TABS,ioos:station:wmo:42048:1,2002-12-01T10:00:00Z,27.9396,-96.8429,2.0,221.612102,24.77080742,-99999.0,'11111222,11111222,99999999' 
TABS,ioos:station:wmo:42048:1,2002-12-01T10:30:00Z,27.9396,-96.8429,2.0,228.925758,22.61685433,-99999.0,'11111222,11111222,99999999' 
TABS,ioos:station:wmo:42048:1,2002-12-01T11:00:00Z,27.9396,-96.8429,2.0,220.290099,21.78881594,-99999.0,'11111222,11111222,99999999' 
TABS,ioos:station:wmo:42048:1,2002-12-01T11:30:00Z,27.9396,-96.8429,2.0,212.1432519,23.73872153,-99999.0,'11111222,11111222,99999999' 
TABS,ioos:station:wmo:42048:1,2002-12-01T12:00:00Z,27.9396,-96.8429,2.0,219.9686902,30.07598544,-99999.0,'11111222,11111222,99999999' 
TABS,ioos:station:wmo:42048:1,2002-12-01T12:30:00Z,27.9396,-96.8429,2.0,227.4292862,29.3571797,-99999.0,'11111222,11111222,99999999' 
TABS,ioos:station:wmo:42048:1,2002-12-01T13:00:00Z,27.9396,-96.8429,2.0,221.00214,31.13896113,-99999.0,'11111222,11111222,99999999' 
TABS,ioos:station:wmo:42048:1,2002-12-01T13:30:00Z,27.9396,-96.8429,2.0,220.4237026,31.19800314,-99999.0,'11111222,11111222,99999999' 
TABS,ioos:station:wmo:42048:1,2002-12-01T14:00:00Z,27.9396,-96.8429,2.0,223.9124522,33.9118755,-99999.0,'11111222,11111222,99999999' 
TABS,ioos:station:wmo:42048:1,2002-12-01T14:30:00Z,27.9396,-96.8429,2.0,226.0264617,34.72451872,-99999.0,'11111222,11111222,99999999' 
TABS,ioos:station:wmo:42048:1,2002-12-01T15:00:00Z,27.9396,-96.8429,2.0,217.0656531,35.65420873,-99999.0,'11111222,11111222,99999999' 
TABS,ioos:station:wmo:42048:1,2002-12-01T15:30:00Z,27.9396,-96.8429,2.0,227.0189916,37.12494714,-99999.0,'11111222,11111222,99999999' 
TABS,ioos:station:wmo:42048:1,2002-12-01T16:00:00Z,27.9396,-96.8429,2.0,222.6909198,44.58391863,-99999.0,'11111222,11111222,99999999' 
TABS,ioos:station:wmo:42048:1,2002-12-01T16:30:00Z,27.9396,-96.8429,2.0,219.9602768,43.06664254,-99999.0,'11111222,11111222,99999999' 
TABS,ioos:station:wmo:42048:1,2002-12-01T17:00:00Z,27.9396,-96.8429,2.0,223.3038728,49.22204791,-99999.0,'11111222,11111222,99999999' 
TABS,ioos:station:wmo:42048:1,2002-12-01T17:30:00Z,27.9396,-96.8429,2.0,214.8518174,42.94262684,-99999.0,'11111222,11111222,99999999' 
TABS,ioos:station:wmo:42048:1,2002-12-01T18:00:00Z,27.9396,-96.8429,2.0,214.7717037,44.8000279,-99999.0,'11111222,11111222,99999999' 
TABS,ioos:station:wmo:42048:1,2002-12-01T18:30:00Z,27.9396,-96.8429,2.0,211.6789343,38.7308301,-99999.0,'11111222,11111222,99999999' 
TABS,ioos:station:wmo:42048:1,2002-12-01T19:00:00Z,27.9396,-96.8429,2.0,216.1750654,63.19264277,-99999.0,'11111222,11111222,99999999' 
TABS,ioos:station:wmo:42048:1,2002-12-01T19:30:00Z,27.9396,-96.8429,2.0,218.0179271,68.75980948,-99999.0,'11111222,11111222,99999999' 
TABS,ioos:station:wmo:42048:1,2002-12-01T20:00:00Z,27.9396,-96.8429,2.0,217.9430872,68.32199134,-99999.0,'11111222,11111222,99999999' 
TABS,ioos:station:wmo:42048:1,2002-12-01T20:30:00Z,27.9396,-96.8429,2.0,210.3942047,69.90798881,-99999.0,'11111222,11111222,99999999' 
TABS,ioos:station:wmo:42048:1,2002-12-01T21:00:00Z,27.9396,-96.8429,2.0,212.7626098,72.15930224,-99999.0,'11111222,11111222,99999999' 
TABS,ioos:station:wmo:42048:1,2002-12-01T21:30:00Z,27.9396,-96.8429,2.0,214.2919231,72.57543455,-99999.0,'11111222,11111222,99999999' 
TABS,ioos:station:wmo:42048:1,2002-12-01T22:00:00Z,27.9396,-96.8429,2.0,220.3442923,75.53485884,-99999.0,'11111222,11111222,99999999' 
TABS,ioos:station:wmo:42048:1,2002-12-01T23:00:00Z,27.9396,-96.8429,2.0,214.5533821,75.81394067,-99999.0,'11111222,11111222,99999999' 
TABS,ioos:station:wmo:42048:1,2002-12-01T23:30:00Z,27.9396,-96.8429,2.0,215.2082286,66.77607056,-99999.0,'11111222,11111222,99999999' 
TABS,ioos:station:wmo:42048:1,2002-12-02T00:00:00Z,27.9396,-96.8429,2.0,221.2743227,65.6238257,-99999.0,'11111222,11111222,99999999' 
TABS,ioos:station:wmo:42048:1,2002-12-02T00:30:00Z,27.9396,-96.8429,2.0,216.6981048,58.13226041,-99999.0,'11111222,11111222,99999999' 
TABS,ioos:station:wmo:42048:1,2002-12-02T01:00:00Z,27.9396,-96.8429,2.0,214.0695507,53.14144616,-99999.0,'11111222,11111222,99999999' 
TABS,ioos:station:wmo:42048:1,2002-12-02T01:30:00Z,27.9396,-96.8429,2.0,218.1257125,41.23790974,-99999.0,'11111222,11111222,99999999' 
TABS,ioos:station:wmo:42048:1,2002-12-02T02:00:00Z,27.9396,-96.8429,2.0,217.3279564,37.50119998,-99999.0,'11111222,11111222,99999999' 
TABS,ioos:station:wmo:42048:1,2002-12-02T02:30:00Z,27.9396,-96.8429,2.0,220.2620146,37.58385957,-99999.0,'11111222,11111222,99999999' 
TABS,ioos:station:wmo:42048:1,2002-12-02T03:00:00Z,27.9396,-96.8429,2.0,215.0898005,35.41708627,-99999.0,'11111222,11111222,99999999' 
TABS,ioos:station:wmo:42048:1,2002-12-02T03:30:00Z,27.9396,-96.8429,2.0,214.8657701,36.89256023,-99999.0,'11111222,11111222,99999999' 
TABS,ioos:station:wmo:42048:1,2002-12-02T04:00:00Z,27.9396,-96.8429,2.0,215.2705074,35.18970446,-99999.0,'11111222,11111222,99999999' 
TABS,ioos:station:wmo:42048:1,2002-12-02T04:30:00Z,27.9396,-96.8429,2.0,217.5489112,34.24440684,-99999.0,'11111222,11111222,99999999' 
TABS,ioos:station:wmo:42048:1,2002-12-02T05:00:00Z,27.9396,-96.8429,2.0,221.7311589,35.46960671,-99999.0,'11111222,11111222,99999999' 
TABS,ioos:station:wmo:42048:1,2002-12-02T05:30:00Z,27.9396,-96.8429,2.0,213.899848,35.55374804,-99999.0,'11111222,11111222,99999999' 
TABS,ioos:station:wmo:42048:1,2002-12-02T06:00:00Z,27.9396,-96.8429,2.0,216.2015047,30.18805227,-99999.0,'11111222,11111222,99999999' 
TABS,ioos:station:wmo:42048:1,2002-12-02T06:30:00Z,27.9396,-96.8429,2.0,221.4772193,24.39885243,-99999.0,'11111222,11111222,99999999' 
TABS,ioos:station:wmo:42048:1,2002-12-02T07:00:00Z,27.9396,-96.8429,2.0,209.7083917,29.43965013,-99999.0,'11111222,11111222,99999999' 
TABS,ioos:station:wmo:42048:1,2002-12-02T07:30:00Z,27.9396,-96.8429,2.0,226.4044731,23.36275883,-99999.0,'11111222,11111222,99999999' 
TABS,ioos:station:wmo:42048:1,2002-12-02T08:00:00Z,27.9396,-96.8429,2.0,243.7117504,33.28202518,-99999.0,'11111222,11111222,99999999' 
TABS,ioos:station:wmo:42048:1,2002-12-02T08:30:00Z,27.9396,-96.8429,2.0,232.0295537,29.58145365,-99999.0,'11111222,11111222,99999999' 
TABS,ioos:station:wmo:42048:1,2002-12-02T09:00:00Z,27.9396,-96.8429,2.0,219.1482925,26.91128016,-99999.0,'11111222,11111222,99999999' 
TABS,ioos:station:wmo:42048:1,2002-12-02T09:30:00Z,27.9396,-96.8429,2.0,219.8429212,33.12058725,-99999.0,'11111222,11111222,99999999' 
TABS,ioos:station:wmo:42048:1,2002-12-02T10:00:00Z,27.9396,-96.8429,2.0,231.1785664,24.96447476,-99999.0,'11111222,11111222,99999999' 
TABS,ioos:station:wmo:42048:1,2002-12-02T10:30:00Z,27.9396,-96.8429,2.0,225.985016,25.905152,-99999.0,'11111222,11111222,99999999' 
TABS,ioos:station:wmo:42048:1,2002-12-02T11:00:00Z,27.9396,-96.8429,2.0,228.4215827,35.18472538,-99999.0,'11111222,11111222,99999999' 
TABS,ioos:station:wmo:42048:1,2002-12-02T11:30:00Z,27.9396,-96.8429,2.0,230.2361838,31.37800663,-99999.0,'11111222,11111222,99999999' 
TABS,ioos:station:wmo:42048:1,2002-12-02T12:00:00Z,27.9396,-96.8429,2.0,214.0922762,45.40333138,-99999.0,'11111222,11111222,99999999' 
TABS,ioos:station:wmo:42048:1,2002-12-02T12:30:00Z,27.9396,-96.8429,2.0,218.1450327,48.70006571,-99999.0,'11111222,11111222,99999999' 
TABS,ioos:station:wmo:42048:1,2002-12-02T13:00:00Z,27.9396,-96.8429,2.0,210.4202149,44.49559304,-99999.0,'11111222,11111222,99999999' 
TABS,ioos:station:wmo:42048:1,2002-12-02T13:30:00Z,27.9396,-96.8429,2.0,213.2530882,39.6649896,-99999.0,'11111222,11111222,99999999' 
TABS,ioos:station:wmo:42048:1,2002-12-02T14:00:00Z,27.9396,-96.8429,2.0,214.3048035,41.34141386,-99999.0,'11111222,11111222,99999999' 
TABS,ioos:station:wmo:42048:1,2002-12-02T14:30:00Z,27.9396,-96.8429,2.0,213.1421068,38.30102479,-99999.0,'11111222,11111222,99999999' 
TABS,ioos:station:wmo:42048:1,2002-12-02T15:00:00Z,27.9396,-96.8429,2.0,218.3685895,39.98568369,-99999.0,'11111222,11111222,99999999' 
TABS,ioos:station:wmo:42048:1,2002-12-02T16:00:00Z,27.9396,-96.8429,2.0,215.0872594,38.32454175,-99999.0,'11111222,11111222,99999999' 
TABS,ioos:station:wmo:42048:1,2002-12-02T16:30:00Z,27.9396,-96.8429,2.0,218.9491718,38.3052281,-99999.0,'11111222,11111222,99999999' 
TABS,ioos:station:wmo:42048:1,2002-12-02T17:00:00Z,27.9396,-96.8429,2.0,213.4670824,40.67369912,-99999.0,'11111222,11111222,99999999' 
TABS,ioos:station:wmo:42048:1,2002-12-02T17:30:00Z,27.9396,-96.8429,2.0,217.2438851,31.22866632,-99999.0,'11111222,11111222,99999999' 
TABS,ioos:station:wmo:42048:1,2002-12-02T18:00:00Z,27.9396,-96.8429,2.0,219.9942911,27.55496688,-99999.0,'11111222,11111222,99999999' 
TABS,ioos:station:wmo:42048:1,2002-12-02T18:30:00Z,27.9396,-96.8429,2.0,219.649315,30.1054231,-99999.0,'11111222,11111222,99999999' 
TABS,ioos:station:wmo:42048:1,2002-12-02T19:00:00Z,27.9396,-96.8429,2.0,221.1343996,32.62233131,-99999.0,'11111222,11111222,99999999' 
TABS,ioos:station:wmo:42048:1,2002-12-02T19:30:00Z,27.9396,-96.8429,2.0,65.67900993,101.0807054,-99999.0,'11111222,11111222,99999999' 
TABS,ioos:station:wmo:42048:1,2002-12-02T20:00:00Z,27.9396,-96.8429,2.0,192.7335155,76.71686255,-99999.0,'11111222,11111222,99999999' 
TABS,ioos:station:wmo:42048:1,2002-12-02T20:30:00Z,27.9396,-96.8429,2.0,206.7211101,16.39043929,-99999.0,'11111222,11111222,99999999' 
TABS,ioos:station:wmo:42048:1,2002-12-02T21:00:00Z,27.9396,-96.8429,2.0,225.5721013,46.71380524,-99999.0,'11111222,11111222,99999999' 
TABS,ioos:station:wmo:42048:1,2002-12-02T21:30:00Z,27.9396,-96.8429,2.0,223.1803279,42.5397755,-99999.0,'11111222,11111222,99999999' 
TABS,ioos:station:wmo:42048:1,2002-12-02T22:00:00Z,27.9396,-96.8429,2.0,226.2563162,40.6259843,-99999.0,'11111222,11111222,99999999' 
TABS,ioos:station:wmo:42048:1,2002-12-02T22:30:00Z,27.9396,-96.8429,2.0,227.1301688,44.69883332,-99999.0,'11111222,11111222,99999999' 
TABS,ioos:station:wmo:42048:1,2002-12-02T23:00:00Z,27.9396,-96.8429,2.0,234.1487089,46.56136274,-99999.0,'11111222,11111222,99999999' 
TABS,ioos:station:wmo:42048:1,2002-12-02T23:30:00Z,27.9396,-96.8429,2.0,230.2004232,46.41464963,-99999.0,'11111222,11111222,99999999' 
TABS,ioos:station:wmo:42048:1,2002-12-03T00:00:00Z,27.9396,-96.8429,2.0,234.0946999,43.70419774,-99999.0,'11111222,11111222,99999999' 
TABS,ioos:station:wmo:42048:1,2002-12-03T00:30:00Z,27.9396,-96.8429,2.0,229.7939052,39.5950906,-99999.0,'11111222,11111222,99999999' 
TABS,ioos:station:wmo:42048:1,2002-12-03T01:00:00Z,27.9396,-96.8429,2.0,235.4119823,45.85437166,-99999.0,'11111222,11111222,99999999' 
TABS,ioos:station:wmo:42048:1,2002-12-03T01:30:00Z,27.9396,-96.8429,2.0,229.2559595,43.6356964,-99999.0,'11111222,11111222,99999999' 
TABS,ioos:station:wmo:42048:1,2002-12-03T02:00:00Z,27.9396,-96.8429,2.0,231.5008489,38.90772288,-99999.0,'11111222,11111222,99999999' 
TABS,ioos:station:wmo:42048:1,2002-12-03T02:30:00Z,27.9396,-96.8429,2.0,237.4100159,43.03603142,-99999.0,'11111222,11111222,99999999' 
TABS,ioos:station:wmo:42048:1,2002-12-03T03:00:00Z,27.9396,-96.8429,2.0,234.7675199,41.63700878,-99999.0,'11111222,11111222,99999999' 
TABS,ioos:station:wmo:42048:1,2002-12-03T03:30:00Z,27.9396,-96.8429,2.0,233.5366784,41.67905109,-99999.0,'11111222,11111222,99999999' 
TABS,ioos:station:wmo:42048:1,2002-12-03T04:00:00Z,27.9396,-96.8429,2.0,231.9288874,41.32107574,-99999.0,'11111222,11111222,99999999' 
TABS,ioos:station:wmo:42048:1,2002-12-03T04:30:00Z,27.9396,-96.8429,2.0,233.3509634,40.40830113,-99999.0,'11111222,11111222,99999999' 
TABS,ioos:station:wmo:42048:1,2002-12-03T05:00:00Z,27.9396,-96.8429,2.0,231.3466303,39.65720363,-99999.0,'11111222,11111222,99999999' 
TABS,ioos:station:wmo:42048:1,2002-12-03T05:30:00Z,27.9396,-96.8429,2.0,231.0144088,40.69173012,-99999.0,'11111222,11111222,99999999' 
TABS,ioos:station:wmo:42048:1,2002-12-03T06:00:00Z,27.9396,-96.8429,2.0,226.4621866,36.29347186,-99999.0,'11111222,11111222,99999999' 
TABS,ioos:station:wmo:42048:1,2002-12-03T06:30:00Z,27.9396,-96.8429,2.0,228.8483842,34.23754226,-99999.0,'11111222,11111222,99999999' 
TABS,ioos:station:wmo:42048:1,2002-12-03T07:00:00Z,27.9396,-96.8429,2.0,229.5053196,33.12425395,-99999.0,'11111222,11111222,99999999' 
TABS,ioos:station:wmo:42048:1,2002-12-03T07:30:00Z,27.9396,-96.8429,2.0,225.1686975,28.76522901,-99999.0,'11111222,11111222,99999999' 
TABS,ioos:station:wmo:42048:1,2002-12-03T08:00:00Z,27.9396,-96.8429,2.0,225.7462552,29.30499275,-99999.0,'11111222,11111222,99999999' 
TABS,ioos:station:wmo:42048:1,2002-12-03T08:30:00Z,27.9396,-96.8429,2.0,221.1914599,27.6807117,-99999.0,'11111222,11111222,99999999' 
TABS,ioos:station:wmo:42048:1,2002-12-03T09:00:00Z,27.9396,-96.8429,2.0,218.9599466,26.20944105,-99999.0,'11111222,11111222,99999999' 
TABS,ioos:station:wmo:42048:1,2002-12-03T09:30:00Z,27.9396,-96.8429,2.0,219.4282539,26.07399471,-99999.0,'11111222,11111222,99999999' 
TABS,ioos:station:wmo:42048:1,2002-12-03T10:00:00Z,27.9396,-96.8429,2.0,215.7436823,30.02579724,-99999.0,'11111222,11111222,99999999' 
TABS,ioos:station:wmo:42048:1,2002-12-03T10:30:00Z,27.9396,-96.8429,2.0,214.8454415,27.91541868,-99999.0,'11111222,11111222,99999999' 
TABS,ioos:station:wmo:42048:1,2002-12-03T11:00:00Z,27.9396,-96.8429,2.0,215.4615728,29.8710194,-99999.0,'11111222,11111222,99999999' 
TABS,ioos:station:wmo:42048:1,2002-12-03T11:30:00Z,27.9396,-96.8429,2.0,211.9962021,27.30872571,-99999.0,'11111222,11111222,99999999' 
TABS,ioos:station:wmo:42048:1,2002-12-03T12:00:00Z,27.9396,-96.8429,2.0,208.6719594,25.90671342,-99999.0,'11111222,11111222,99999999' 
TABS,ioos:station:wmo:42048:1,2002-12-03T12:30:00Z,27.9396,-96.8429,2.0,214.7817918,24.59432658,-99999.0,'11111222,11111222,99999999' 
TABS,ioos:station:wmo:42048:1,2002-12-03T13:00:00Z,27.9396,-96.8429,2.0,209.3657349,26.44850468,-99999.0,'11111222,11111222,99999999' 
TABS,ioos:station:wmo:42048:1,2002-12-03T13:30:00Z,27.9396,-96.8429,2.0,206.6666475,22.63798798,-99999.0,'11111222,11111222,99999999' 
TABS,ioos:station:wmo:42048:1,2002-12-03T14:00:00Z,27.9396,-96.8429,2.0,191.3046202,22.13955058,-99999.0,'11111222,11111222,99999999' 
TABS,ioos:station:wmo:42048:1,2002-12-03T14:30:00Z,27.9396,-96.8429,2.0,217.6438877,22.64406766,-99999.0,'11111222,11111222,99999999' 
TABS,ioos:station:wmo:42048:1,2002-12-03T15:00:00Z,27.9396,-96.8429,2.0,219.3271132,24.39443584,-99999.0,'11111222,11111222,99999999' 
TABS,ioos:station:wmo:42048:1,2002-12-03T15:30:00Z,27.9396,-96.8429,2.0,220.44686,22.98278051,-99999.0,'11111222,11111222,99999999' 
TABS,ioos:station:wmo:42048:1,2002-12-03T16:00:00Z,27.9396,-96.8429,2.0,220.1483116,22.24040467,-99999.0,'11111222,11111222,99999999' 
TABS,ioos:station:wmo:42048:1,2002-12-03T16:30:00Z,27.9396,-96.8429,2.0,236.5644809,23.06743592,-99999.0,'11111222,11111222,99999999' 
TABS,ioos:station:wmo:42048:1,2002-12-03T17:00:00Z,27.9396,-96.8429,2.0,225.5643936,25.11058143,-99999.0,'11111222,11111222,99999999' 
TABS,ioos:station:wmo:42048:1,2002-12-03T17:30:00Z,27.9396,-96.8429,2.0,224.8518037,24.65689559,-99999.0,'11111222,11111222,99999999' 
TABS,ioos:station:wmo:42048:1,2002-12-03T18:00:00Z,27.9396,-96.8429,2.0,223.6674676,23.41863574,-99999.0,'11111222,11111222,99999999' 
TABS,ioos:station:wmo:42048:1,2002-12-03T18:30:00Z,27.9396,-96.8429,2.0,221.9673978,26.19963359,-99999.0,'11111222,11111222,99999999' 
TABS,ioos:station:wmo:42048:1,2002-12-03T19:00:00Z,27.9396,-96.8429,2.0,224.4486384,27.203656,-99999.0,'11111222,11111222,99999999' 
TABS,ioos:station:wmo:42048:1,2002-12-03T19:30:00Z,27.9396,-96.8429,2.0,227.9116955,23.24433049,-99999.0,'11111222,11111222,99999999' 
TABS,ioos:station:wmo:42048:1,2002-12-03T20:00:00Z,27.9396,-96.8429,2.0,218.1652771,26.97689752,-99999.0,'11111222,11111222,99999999' 
TABS,ioos:station:wmo:42048:1,2002-12-03T21:00:00Z,27.9396,-96.8429,2.0,207.7267433,26.24341822,-99999.0,'11111222,11111222,99999999' 
TABS,ioos:station:wmo:42048:1,2002-12-03T21:30:00Z,27.9396,-96.8429,2.0,210.9183945,26.1569723,-99999.0,'11111222,11111222,99999999' 
TABS,ioos:station:wmo:42048:1,2002-12-03T22:00:00Z,27.9396,-96.8429,2.0,219.3569438,22.58127543,-99999.0,'11111222,11111222,99999999' 
TABS,ioos:station:wmo:42048:1,2002-12-03T22:30:00Z,27.9396,-96.8429,2.0,209.4998803,23.2319177,-99999.0,'11111222,11111222,99999999' 
TABS,ioos:station:wmo:42048:1,2002-12-03T23:00:00Z,27.9396,-96.8429,2.0,207.4766811,24.16601126,-99999.0,'11111222,11111222,99999999' 
TABS,ioos:station:wmo:42048:1,2002-12-03T23:30:00Z,27.9396,-96.8429,2.0,203.6084303,26.96709291,-99999.0,'11111222,11111222,99999999' 
TABS,ioos:station:wmo:42048:1,2002-12-04T00:00:00Z,27.9396,-96.8429,2.0,202.3810944,25.50099018,-99999.0,'11111222,11111222,99999999' 
TABS,ioos:station:wmo:42048:1,2002-12-04T00:30:00Z,27.9396,-96.8429,2.0,202.3897236,25.307896,-99999.0,'11111222,11111222,99999999' 
TABS,ioos:station:wmo:42048:1,2002-12-04T01:00:00Z,27.9396,-96.8429,2.0,203.0218544,23.44750093,-99999.0,'11111222,11111222,99999999' 
TABS,ioos:station:wmo:42048:1,2002-12-04T01:30:00Z,27.9396,-96.8429,2.0,204.163465,20.81370942,-99999.0,'11111222,11111222,99999999' 
TABS,ioos:station:wmo:42048:1,2002-12-04T02:00:00Z,27.9396,-96.8429,2.0,196.2356363,21.67440195,-99999.0,'11111222,11111222,99999999' 
TABS,ioos:station:wmo:42048:1,2002-12-04T02:30:00Z,27.9396,-96.8429,2.0,197.8351456,24.78096447,-99999.0,'11111222,11111222,99999999' 
TABS,ioos:station:wmo:42048:1,2002-12-04T03:00:00Z,27.9396,-96.8429,2.0,195.1559616,26.92659837,-99999.0,'11111222,11111222,99999999' 
TABS,ioos:station:wmo:42048:1,2002-12-04T03:30:00Z,27.9396,-96.8429,2.0,189.1466345,22.39476948,-99999.0,'11111222,11111222,99999999' 
TABS,ioos:station:wmo:42048:1,2002-12-04T04:00:00Z,27.9396,-96.8429,2.0,187.4036246,25.99674787,-99999.0,'11111222,11111222,99999999' 
TABS,ioos:station:wmo:42048:1,2002-12-04T04:30:00Z,27.9396,-96.8429,2.0,188.8908107,25.55709295,-99999.0,'11111222,11111222,99999999' 
TABS,ioos:station:wmo:42048:1,2002-12-04T05:00:00Z,27.9396,-96.8429,2.0,181.3516483,20.34566293,-99999.0,'11111222,11111222,99999999' 
TABS,ioos:station:wmo:42048:1,2002-12-04T05:30:00Z,27.9396,-96.8429,2.0,189.248959,25.63326745,-99999.0,'11111222,11111222,99999999' 
TABS,ioos:station:wmo:42048:1,2002-12-04T06:00:00Z,27.9396,-96.8429,2.0,183.1377062,25.02752485,-99999.0,'11111222,11111222,99999999' 
TABS,ioos:station:wmo:42048:1,2002-12-04T06:30:00Z,27.9396,-96.8429,2.0,174.5870304,26.60864897,-99999.0,'11111222,11111222,99999999' 
TABS,ioos:station:wmo:42048:1,2002-12-04T07:00:00Z,27.9396,-96.8429,2.0,177.3122935,28.7916672,-99999.0,'11111222,11111222,99999999' 
TABS,ioos:station:wmo:42048:1,2002-12-04T07:30:00Z,27.9396,-96.8429,2.0,183.7822301,24.10250194,-99999.0,'11111222,11111222,99999999' 
TABS,ioos:station:wmo:42048:1,2002-12-04T08:00:00Z,27.9396,-96.8429,2.0,184.1486835,23.2208527,-99999.0,'11111222,11111222,99999999' 
TABS,ioos:station:wmo:42048:1,2002-12-04T08:30:00Z,27.9396,-96.8429,2.0,183.2296452,24.13834294,-99999.0,'11111222,11111222,99999999' 
TABS,ioos:station:wmo:42048:1,2002-12-04T09:00:00Z,27.9396,-96.8429,2.0,175.3064772,27.74302435,-99999.0,'11111222,11111222,99999999' 
TABS,ioos:station:wmo:42048:1,2002-12-04T09:30:00Z,27.9396,-96.8429,2.0,178.2380046,29.27383815,-99999.0,'11111222,11111222,99999999' 
TABS,ioos:station:wmo:42048:1,2002-12-04T10:00:00Z,27.9396,-96.8429,2.0,166.903746,27.93658891,-99999.0,'11111222,11111222,99999999' 
TABS,ioos:station:wmo:42048:1,2002-12-04T10:30:00Z,27.9396,-96.8429,2.0,183.8265737,29.96681498,-99999.0,'11111222,11111222,99999999' 
TABS,ioos:station:wmo:42048:1,2002-12-04T11:00:00Z,27.9396,-96.8429,2.0,185.4241205,28.87932478,-99999.0,'11111222,11111222,99999999' 
TABS,ioos:station:wmo:42048:1,2002-12-04T11:30:00Z,27.9396,-96.8429,2.0,176.2498546,31.4974364,-99999.0,'11111222,11111222,99999999' 
TABS,ioos:station:wmo:42048:1,2002-12-04T12:00:00Z,27.9396,-96.8429,2.0,177.3176302,27.78043376,-99999.0,'11111222,11111222,99999999' 
TABS,ioos:station:wmo:42048:1,2002-12-04T12:30:00Z,27.9396,-96.8429,2.0,177.6327156,34.13913004,-99999.0,'11111222,11111222,99999999' 
TABS,ioos:station:wmo:42048:1,2002-12-04T13:00:00Z,27.9396,-96.8429,2.0,183.155388,35.4237124,-99999.0,'11111222,11111222,99999999' 
TABS,ioos:station:wmo:42048:1,2002-12-04T13:30:00Z,27.9396,-96.8429,2.0,185.9898413,33.25155335,-99999.0,'11111222,11111222,99999999' 
TABS,ioos:station:wmo:42048:1,2002-12-04T14:00:00Z,27.9396,-96.8429,2.0,185.4757899,40.34412101,-99999.0,'11111222,11111222,99999999' 
TABS,ioos:station:wmo:42048:1,2002-12-04T14:30:00Z,27.9396,-96.8429,2.0,189.788771,50.17045445,-99999.0,'11111222,11111222,99999999' 
TABS,ioos:station:wmo:42048:1,2002-12-04T15:00:00Z,27.9396,-96.8429,2.0,188.0716012,55.62104817,-99999.0,'11111222,11111222,99999999' 
TABS,ioos:station:wmo:42048:1,2002-12-04T15:30:00Z,27.9396,-96.8429,2.0,199.1678605,58.32349955,-99999.0,'11111222,11111222,99999999' 
TABS,ioos:station:wmo:42048:1,2002-12-04T16:00:00Z,27.9396,-96.8429,2.0,202.7259095,50.16470173,-99999.0,'11111222,11111222,99999999' 
TABS,ioos:station:wmo:42048:1,2002-12-04T16:30:00Z,27.9396,-96.8429,2.0,209.4935207,43.58870496,-99999.0,'11111222,11111222,99999999' 
TABS,ioos:station:wmo:42048:1,2002-12-04T17:00:00Z,27.9396,-96.8429,2.0,221.5133391,36.51185561,-99999.0,'11111222,11111222,99999999' 
TABS,ioos:station:wmo:42048:1,2002-12-04T18:00:00Z,27.9396,-96.8429,2.0,225.8253663,30.4228927,-99999.0,'11111222,11111222,99999999' 